Location: Unspecified
(0.0000°N, 0.0000°E)
Time: 21:55:47
(UTC+02:00)

SWIFT - Visible Passes

Search period start: 20 September 2017 00:00
Search period end: 30 September 2017 00:00
Orbit: 547 x 563 km, 20.6° (Epoch: 19 September)

Date Brightness Start Highest point End Pass type
(mag) Time Alt. Az. Time Alt. Az. Time Alt. Az.
26 Sep 4.6 20:26:38 10° N 20:28:26 12° NNE 20:30:14 10° NE visible
26 Sep 5.4 22:06:39 10° NW 22:06:45 11° NW 22:06:45 11° NW visible
27 Sep 4.3 20:20:29 10° NNW 20:23:07 16° NNE 20:25:47 10° ENE visible
27 Sep 5.0 22:01:05 10° WNW 22:01:52 15° NW 22:01:52 15° NW visible
28 Sep 3.9 20:14:34 10° NNW 20:17:47 21° NNE 20:21:01 10° ENE visible
28 Sep 4.7 21:55:35 10° WNW 21:57:01 21° WNW 21:57:01 21° WNW visible
29 Sep 3.5 20:08:47 10° NW 20:12:26 28° NNE 20:16:05 10° E visible
29 Sep 4.3 21:50:12 10° WNW 21:52:14 27° W 21:52:14 27° W visible
